356P/WISE (2026)

Japanese version
Home page
Updated on January 31, 2026

---------------------------------------------------------------------

* Profile

* Pictures

* Orbital Elements

Epoch 2025 May 5.0 TT = JDT 2460800.5
T 2026 June 12.31371 TT                                 Pike
q   2.6746202            (2000.0)            P               Q
n   0.11647884     Peri.  226.26189     +0.88756988     -0.45735295
a   4.1524526      Node   160.74739     +0.45594610     +0.85500712
e   0.3558939      Incl.    9.63865     +0.06582445     +0.24452219
P   8.46
From 200 observations 2009 Nov. 9-2025 Aug. 2, mean residual 0".8.

* Magnitudes Graph

        m1 = 12.5 + 5 log d + 10.0 log r

---------------------------------------------------------------------

The orbital elements are published on M.P.E.C. 2025-P113.
The magnitudes graphs are made with Comet for Windows.

---------------------------------------------------------------------

Copyright(C) Seiichi Yoshida (comet@aerith.net). All rights reserved.